STARLINK-34589

Last updated on Sat Jul 19 2025 00:02:08 GMT+0000 (Coordinated Universal Time)

1 64747U 25144Z 25199.58335648 -.01530747 00000+0 -13029-1 0 9996 2 64747 53.1586 192.1382 0001198 73.4456 55.1126 15.71641898 3814
UTC large
Height (km)
Speed (km/s)
/
Latitude / Longitude
Inclination (degrees)
Orbital Period (minutes)
Azimuth
Elevation
Range (km)
Doppler Factor

Next 0 passes for location: London (51.5072 / 0.1276)

Sorry there are no passes over London.